SAA325 FAOR-YPPH

Flight info

Callsign SAA325
Flight time N/A
Altitude 35000
Route EXOBI3B EXOBI DCT EGSOX DCT 31S040E 33S045E 35S051E/N0470F370 DCT RAXES UT451 SUNKI DCT 38S082E 38S089E/N0466F390 37S096E 35S102E 34S109E DCT KAGMI
Aircraft A346/H-SDE2E3FGHIJ3J4J5M1RWXY/LB1D1

Departure

Time 2026-05-07 08:41
Airport O.R. Tambo International Airport (FAOR)

Arrival

Time N/A
Airport Perth International Airport (YPPH)
Time Latitude Longitude Altitude Speed Heading
2026-05-07 08:14 -26.13049 28.23611 5555 ft 0 kts
2026-05-07 08:32 -26.13052 28.23611 5556 ft 0 kts
2026-05-07 08:33 -26.13075 28.23608 5553 ft 0 kts
2026-05-07 08:33 -26.13101 28.23605 5555 ft 0 kts
2026-05-07 08:33 -26.13127 28.23601 5555 ft 0 kts
2026-05-07 08:33 -26.13145 28.23593 5554 ft 0 kts 42°
2026-05-07 08:34 -26.13149 28.23588 5554 ft 0 kts 51°
2026-05-07 08:36 -26.13147 28.23592 5554 ft 2 kts 54°
2026-05-07 08:36 -26.13141 28.23606 5555 ft 7 kts 70°
2026-05-07 08:36 -26.13074 28.23703 5558 ft 11 kts 16°
2026-05-07 08:36 -26.12997 28.23740 5555 ft 13 kts 24°
2026-05-07 08:37 -26.12912 28.23775 5554 ft 13 kts 17°
2026-05-07 08:37 -26.12852 28.23793 5555 ft 13 kts 14°
2026-05-07 08:37 -26.12766 28.23818 5554 ft 12 kts 14°
2026-05-07 08:37 -26.12663 28.23847 5556 ft 17 kts 14°
2026-05-07 08:38 -26.12501 28.23894 5551 ft 35 kts 14°
2026-05-07 08:38 -26.12277 28.23962 5549 ft 34 kts 15°
2026-05-07 08:38 -26.12053 28.24030 5545 ft 33 kts 15°
2026-05-07 08:38 -26.11827 28.24101 5535 ft 34 kts 16°
2026-05-07 08:39 -26.11597 28.24174 5534 ft 33 kts 15°
2026-05-07 08:39 -26.11374 28.24244 5532 ft 32 kts 15°
2026-05-07 08:39 -26.11155 28.24312 5525 ft 33 kts 15°
2026-05-07 08:39 -26.10974 28.24369 5522 ft 22 kts 22°
2026-05-07 08:40 -26.10865 28.24499 5516 ft 24 kts 58°
2026-05-07 08:40 -26.10870 28.24594 5516 ft 7 kts 171°
2026-05-07 08:40 -26.10928 28.24579 5517 ft 16 kts 191°
2026-05-07 08:40 -26.11244 28.24488 5529 ft 77 kts 197°
2026-05-07 08:41 -26.11943 28.24272 5539 ft 131 kts 195°
2026-05-07 08:41 -26.13220 28.23877 5557 ft 184 kts 195°
2026-05-07 08:41 -26.14893 28.23444 6205 ft 192 kts 195°
2026-05-07 08:41 -26.16322 28.23031 7024 ft 192 kts 198°
2026-05-07 08:42 -26.17890 28.22572 7676 ft 204 kts 189°
2026-05-07 08:42 -26.19387 28.22988 8040 ft 234 kts 147°
2026-05-07 08:42 -26.20386 28.24531 8345 ft 265 kts 109°
2026-05-07 08:42 -26.20471 28.26692 8690 ft 291 kts 82°
2026-05-07 08:43 -26.19995 28.28997 9153 ft 308 kts 76°
2026-05-07 08:43 -26.19438 28.31323 9703 ft 313 kts 77°
2026-05-07 08:43 -26.18913 28.33693 10249 ft 318 kts 78°
2026-05-07 08:43 -26.18422 28.36151 10666 ft 328 kts 78°
2026-05-07 08:44 -26.17957 28.38665 10919 ft 342 kts 78°
2026-05-07 08:44 -26.17486 28.41326 11172 ft 356 kts 79°
2026-05-07 08:44 -26.17004 28.44101 11418 ft 371 kts 78°
2026-05-07 08:44 -26.16506 28.46993 11660 ft 385 kts 78°
2026-05-07 08:45 -26.16001 28.49932 11902 ft 399 kts 78°
2026-05-07 08:45 -26.15454 28.53128 12157 ft 413 kts 78°
2026-05-07 08:45 -26.14909 28.56310 12608 ft 419 kts 78°
2026-05-07 08:45 -26.14364 28.59505 13229 ft 422 kts 77°
2026-05-07 08:46 -26.13812 28.62738 13803 ft 426 kts 77°
2026-05-07 08:46 -26.13254 28.65992 14304 ft 430 kts 77°
2026-05-07 08:46 -26.12684 28.69293 14776 ft 435 kts 76°
2026-05-07 08:46 -26.12111 28.72608 15264 ft 438 kts 76°
2026-05-07 08:47 -26.11529 28.75969 15724 ft 443 kts 76°
2026-05-07 08:47 -26.10944 28.79348 16174 ft 447 kts 76°
2026-05-07 08:47 -26.10350 28.82781 16636 ft 451 kts 76°
2026-05-07 08:47 -26.09747 28.86261 17088 ft 455 kts 76°
2026-05-07 08:48 -26.09149 28.89706 17528 ft 459 kts 76°
2026-05-07 08:48 -26.08549 28.93167 17976 ft 463 kts 76°
2026-05-07 08:48 -26.07937 28.96686 18390 ft 467 kts 76°
2026-05-07 08:48 -26.07318 29.00257 18777 ft 470 kts 76°
2026-05-07 08:49 -26.06693 29.03844 19156 ft 473 kts 76°
2026-05-07 08:49 -26.06055 29.07496 19518 ft 477 kts 76°
2026-05-07 08:49 -26.05475 29.10966 19857 ft 482 kts 79°
2026-05-07 08:49 -26.05420 29.14728 20222 ft 489 kts 96°
2026-05-07 08:50 -26.06218 29.18405 20687 ft 491 kts 112°
2026-05-07 08:50 -26.07656 29.21838 21100 ft 492 kts 118°
2026-05-07 08:50 -26.09263 29.25249 21363 ft 498 kts 120°
2026-05-07 08:50 -26.10901 29.28681 21620 ft 504 kts 119°
2026-05-07 08:51 -26.12542 29.32169 21939 ft 509 kts 119°
2026-05-07 08:51 -26.14152 29.35656 22286 ft 512 kts 118°
2026-05-07 08:51 -26.15773 29.39212 22611 ft 516 kts 118°
2026-05-07 08:51 -26.17393 29.42797 22954 ft 520 kts 118°
2026-05-07 08:52 -26.19022 29.46422 23269 ft 523 kts 118°
2026-05-07 08:52 -26.20648 29.50049 23593 ft 527 kts 118°
2026-05-07 08:52 -26.22290 29.53719 23872 ft 530 kts 118°
2026-05-07 08:52 -26.23945 29.57419 24135 ft 534 kts 117°
2026-05-07 08:53 -26.25606 29.61134 24444 ft 536 kts 117°
2026-05-07 08:53 -26.27249 29.64813 24797 ft 537 kts 117°
2026-05-07 08:53 -26.28939 29.68605 25103 ft 539 kts 117°
2026-05-07 08:53 -26.30613 29.72362 25387 ft 542 kts 117°
2026-05-07 08:54 -26.32277 29.76100 25648 ft 545 kts 117°
2026-05-07 08:54 -26.33967 29.79899 25923 ft 548 kts 117°
2026-05-07 08:54 -26.35661 29.83709 26173 ft 551 kts 117°
2026-05-07 08:54 -26.37374 29.87562 26440 ft 554 kts 117°
2026-05-07 08:55 -26.39091 29.91430 26705 ft 557 kts 117°
2026-05-07 08:55 -26.40811 29.95313 26976 ft 560 kts 117°
2026-05-07 08:55 -26.42550 29.99238 27301 ft 562 kts 117°
2026-05-07 08:55 -26.44278 30.03143 27669 ft 562 kts 117°
2026-05-07 08:56 -26.46014 30.07071 27987 ft 563 kts 117°
2026-05-07 08:56 -26.47750 30.11003 28403 ft 563 kts 117°
2026-05-07 08:56 -26.49481 30.14925 28780 ft 563 kts 116°
2026-05-07 08:56 -26.51212 30.18849 29145 ft 563 kts 116°
2026-05-07 08:57 -26.52950 30.22797 29493 ft 564 kts 116°
2026-05-07 08:57 -26.54663 30.26690 29846 ft 565 kts 116°
2026-05-07 08:57 -26.56300 30.30415 30141 ft 565 kts 116°
2026-05-07 08:57 -26.58038 30.34372 30470 ft 565 kts 116°
2026-05-07 08:58 -26.59698 30.38156 30834 ft 565 kts 116°
2026-05-07 08:58 -26.61444 30.42139 31130 ft 565 kts 116°
2026-05-07 08:58 -26.63177 30.46088 31361 ft 567 kts 116°
2026-05-07 08:58 -26.64913 30.50054 31598 ft 568 kts 116°
2026-05-07 08:59 -26.66656 30.54041 31854 ft 569 kts 116°
2026-05-07 08:59 -26.68395 30.58024 32145 ft 569 kts 116°
2026-05-07 08:59 -26.70131 30.62002 32465 ft 568 kts 116°
2026-05-07 08:59 -26.71862 30.65975 32758 ft 568 kts 116°
2026-05-07 09:00 -26.73593 30.69949 33017 ft 569 kts 116°
2026-05-07 09:00 -26.75334 30.73950 33222 ft 570 kts 116°
2026-05-07 09:00 -26.77070 30.77941 33497 ft 571 kts 116°
2026-05-07 09:00 -26.78820 30.81971 33719 ft 573 kts 116°
2026-05-07 09:01 -26.80568 30.85997 33883 ft 576 kts 116°
2026-05-07 09:01 -26.82324 30.90048 34035 ft 578 kts 116°
2026-05-07 09:01 -26.84082 30.94108 34193 ft 579 kts 116°
2026-05-07 09:01 -26.85840 30.98170 34370 ft 579 kts 116°
2026-05-07 09:02 -26.87599 31.02236 34578 ft 580 kts 116°
2026-05-07 09:02 -26.89333 31.06252 34750 ft 581 kts 116°
2026-05-07 09:02 -26.91095 31.10339 34887 ft 582 kts 116°
2026-05-07 09:02 -26.92861 31.14437 34954 ft 582 kts 116°
2026-05-07 09:03 -26.96393 31.22639 34900 ft 583 kts 116°
2026-05-07 09:03 -26.99849 31.30690 34897 ft 584 kts 116°
2026-05-07 09:04 -27.03466 31.39128 34887 ft 586 kts 116°
2026-05-07 09:04 -27.07002 31.47391 34884 ft 586 kts 116°
2026-05-07 09:05 -27.10505 31.55587 34892 ft 586 kts 116°
2026-05-07 09:05 -27.14040 31.63882 34877 ft 587 kts 116°
2026-05-07 09:06 -27.17558 31.72162 34873 ft 586 kts 116°
2026-05-07 09:06 -27.21157 31.80638 34835 ft 586 kts 115°
2026-05-07 09:07 -27.24661 31.88912 34861 ft 586 kts 115°
2026-05-07 09:07 -27.28184 31.97252 34869 ft 586 kts 115°
2026-05-07 09:08 -27.31679 32.05539 34865 ft 586 kts 115°
2026-05-07 09:08 -27.35167 32.13828 34853 ft 585 kts 115°
2026-05-07 09:09 -27.38618 32.22041 34863 ft 585 kts 115°
2026-05-07 09:09 -27.42103 32.30346 34878 ft 585 kts 115°
2026-05-07 09:10 -27.45442 32.38323 34845 ft 584 kts 115°
2026-05-07 09:10 -27.48900 32.46606 34850 ft 583 kts 115°
2026-05-07 09:11 -27.52275 32.54707 34853 ft 583 kts 115°
2026-05-07 09:11 -27.55719 32.62984 34800 ft 583 kts 115°
2026-05-07 09:12 -27.59139 32.71218 34856 ft 580 kts 115°
2026-05-07 09:12 -27.62557 32.79475 34851 ft 580 kts 115°
2026-05-07 09:13 -27.65972 32.87741 34844 ft 580 kts 115°
2026-05-07 09:13 -27.67912 32.92437 34818 ft 579 kts 114°